TimeEDT,TemperatureF,Dew PointF,Humidity,Sea Level PressureIn,VisibilityMPH,Wind Direction,Wind SpeedMPH,Gust SpeedMPH,PrecipitationIn,Events,Conditions,WindDirDegrees,DateUTC
12:00 AM,50.0,46.4,87,29.94,9.0,SW,6.9,-,N/A,,Clear,230,2013-09-04 04:00:00
1:00 AM,50.0,46.4,87,29.94,9.0,SW,5.8,-,N/A,,Clear,220,2013-09-04 05:00:00
2:00 AM,50,47,84,29.94,9,SW,2.3,,,,,230,2013-09-04 06:00:00
2:00 AM,50.0,46.4,87,29.94,9.0,SW,2.3,-,N/A,,Clear,230,2013-09-04 06:00:00
3:00 AM,50.0,48.2,94,29.93,9.0,WSW,3.5,-,N/A,,Clear,240,2013-09-04 07:00:00
4:00 AM,51.8,48.2,88,29.94,9.0,WSW,3.5,-,N/A,,Clear,240,2013-09-04 08:00:00
5:00 AM,51.8,48.2,88,29.94,9.0,SW,5.8,-,N/A,,Clear,220,2013-09-04 09:00:00
6:00 AM,50.0,46.4,87,29.94,9.0,SW,5.8,-,N/A,,Clear,230,2013-09-04 10:00:00
7:00 AM,53.6,50.0,88,29.94,9.0,Calm,Calm,-,N/A,,Clear,0,2013-09-04 11:00:00
8:00 AM,60,52,68,29.95,9,WSW,12.7,,,,,250,2013-09-04 12:00:00
8:00 AM,60.8,51.8,72,29.95,9.0,WSW,16.1,-,N/A,,Clear,240,2013-09-04 12:00:00
9:00 AM,64.4,55.4,73,29.97,9.0,SSW,10.4,-,N/A,,Clear,210,2013-09-04 13:00:00
10:00 AM,69.8,57.2,64,29.96,9.0,West,8.1,-,N/A,,Clear,270,2013-09-04 14:00:00
11:00 AM,71.6,57.2,60,29.96,9.0,West,9.2,-,N/A,,Partly Cloudy,280,2013-09-04 15:00:00
12:00 PM,71.6,57.2,60,29.97,9.0,WNW,9.2,-,N/A,,Mostly Cloudy,300,2013-09-04 16:00:00
1:00 PM,73.4,57.2,57,29.96,9.0,West,11.5,18.4,N/A,,Mostly Cloudy,260,2013-09-04 17:00:00
2:00 PM,69,59,62,29.97,9,North,10.4,,,,Overcast,350,2013-09-04 18:00:00
2:00 PM,68.0,59.0,73,29.97,9.0,NNW,6.9,-,N/A,,Overcast,340,2013-09-04 18:00:00
2:44 PM,71.6,59.0,64,29.95,9.0,WNW,8.1,-,N/A,,Overcast,300,2013-09-04 18:44:00
2:50 PM,71.6,60.8,69,29.95,9.0,NNW,6.9,-,N/A,,Overcast,340,2013-09-04 18:50:00
3:00 PM,69.8,59.0,68,29.97,9.0,NNW,6.9,17.3,N/A,,Overcast,330,2013-09-04 19:00:00
3:33 PM,66.2,57.2,73,29.97,9.0,NNW,10.4,20.7,N/A,,Overcast,330,2013-09-04 19:33:00
3:46 PM,68.0,57.2,68,29.97,9.0,NNW,11.5,17.3,N/A,,Mostly Cloudy,340,2013-09-04 19:46:00
4:00 PM,66.2,55.4,68,29.99,9.0,North,13.8,20.7,N/A,,Mostly Cloudy,350,2013-09-04 20:00:00
4:01 PM,66.2,55.4,68,29.98,9.0,North,13.8,20.7,N/A,,Mostly Cloudy,350,2013-09-04 20:01:00
4:09 PM,66.2,57.2,73,29.98,9.0,North,13.8,21.9,N/A,,Mostly Cloudy,350,2013-09-04 20:09:00
4:11 PM,66.2,55.4,68,29.98,9.0,North,13.8,21.9,N/A,,Mostly Cloudy,360,2013-09-04 20:11:00
4:27 PM,64.4,55.4,73,29.98,9.0,NW,6.9,18.4,N/A,,Overcast,320,2013-09-04 20:27:00
5:00 PM,64.4,55.4,73,29.98,9.0,NNW,10.4,-,N/A,,Overcast,340,2013-09-04 21:00:00
6:00 PM,62.6,53.6,72,30.00,9.0,NNW,9.2,-,N/A,,Overcast,340,2013-09-04 22:00:00
7:00 PM,62.6,53.6,72,30.00,9.0,NNW,6.9,-,N/A,,Overcast,340,2013-09-04 23:00:00
7:36 PM,60.8,53.6,77,29.99,9.0,NNW,4.6,-,N/A,,Overcast,330,2013-09-04 23:36:00
7:54 PM,59.0,53.6,82,29.99,9.0,NNW,5.8,-,N/A,,Scattered Clouds,340,2013-09-04 23:54:00
8:00 PM,59,53,75,30.00,9,NNW,4.6,,,,,330,2013-09-05 00:00:00
8:00 PM,59.0,53.6,82,30.00,9.0,NNW,4.6,-,N/A,,Scattered Clouds,330,2013-09-05 00:00:00
9:00 PM,57.2,51.8,82,30.02,9.0,NW,3.5,-,N/A,,Mostly Cloudy,320,2013-09-05 01:00:00
9:27 PM,57.2,51.8,82,30.02,9.0,NW,3.5,-,N/A,,Partly Cloudy,310,2013-09-05 01:27:00
10:00 PM,55.4,51.8,88,30.02,9.0,WNW,4.6,-,N/A,,Clear,300,2013-09-05 02:00:00
11:00 PM,55.4,50.0,82,30.04,9.0,WNW,5.8,-,N/A,,Clear,290,2013-09-05 03:00:00